This demonstration page uses our WeatherBlox Daily Observations layout. Learn more.

Left ArrowRight Arrow

Hourly Observations for July 28, 2018

Temp ( °F °C ) Dew Point ( °F °C ) Humidity (%) Winds ( mph kmh ) Pressure ( in mb ) Visibility ( mi km ) Precip ( " mm )
12:59 am 00:59 Mostly Cloudy 75 23.9 71 21.7 88 88 SSW 3 6 30.00 1016 10 16 0.00 0.00
1:59 am 01:59 Mostly Cloudy 75 23.9 71 21.7 88 88 SW 5 7 29.99 1016 10 16 0.02 0.51
2:59 am 02:59 Mostly Cloudy 75 23.9 72 22.2 90 90 W 6 9 29.98 1015 9 14 0.01 0.25
3:38 am 03:38 Cloudy 74 23.3 71 21.7 91 91 SW 3 6 30.00 1016 10 16 0.00 0.00
3:59 am 03:59 Mostly Cloudy 74 23.3 71 21.7 91 91 SW 3 6 30.00 1016 9 14 0.00 0.00
4:21 am 04:21 Mostly Cloudy 75 23.9 72 22.2 90 90 WSW 7 11 30.00 1016 10 16 0.00 0.00
4:44 am 04:44 Mostly Cloudy 75 23.9 69 20.6 82 82 W 7 11 30.00 1016 10 16 0.00 0.00
4:59 am 04:59 Mostly Cloudy 74 23.3 68 20 82 82 WSW 5 7 29.99 1016 10 16 0.00 0.00
5:59 am 05:59 Mostly Cloudy with Light Rain 73 22.8 70 21.1 90 90 S 7 11 30.01 1016 7 11 0.01 0.25
6:59 am 06:59 Cloudy with Light Rain 73 22.8 70 21.1 90 90 SSW 3 6 30.01 1016 5 8 0.03 0.76
7:59 am 07:59 Mostly Cloudy 74 23.3 70 21.1 88 88 SW 6 9 30.02 1017 9 14 0.01 0.25
8:59 am 08:59 Mostly Cloudy 76 24.4 72 22.2 88 88 WSW 7 11 30.04 1017 8 13 0.00 0.00
9:59 am 09:59 Mostly Cloudy 78 25.6 73 22.8 85 85 SW 5 7 30.05 1018 9 14 0.00 0.00
10:59 am 10:59 Mostly Cloudy 80 26.7 71 21.7 74 74 VRB 3 6 30.05 1018 10 16 0.00 0.00
11:59 am 11:59 Mostly Cloudy 83 28.3 72 22.2 70 70 VRB 6 9 30.04 1017 10 16 0.00 0.00
12:59 pm 12:59 Mostly Cloudy 83 28.3 71 21.7 67 67 WSW 6 9 30.03 1017 10 16 0.00 0.00
1:59 pm 13:59 Cloudy 83 28.3 71 21.7 67 67 W 6 9 30.04 1017 10 16 0.00 0.00
2:59 pm 14:59 Mostly Cloudy 84 28.9 70 21.1 63 63 W 7 11 30.01 1016 10 16 0.00 0.00
3:59 pm 15:59 Mostly Cloudy 83 28.3 72 22.2 70 70 NE 7 11 30.00 1016 10 16 0.00 0.00
4:59 pm 16:59 Cloudy 81 27.2 72 22.2 74 74 E 5 7 30.01 1016 9 14 0.00 0.00
5:59 pm 17:59 Cloudy 82 27.8 72 22.2 72 72 ESE 5 7 30.01 1016 9 14 0.00 0.00
6:59 pm 18:59 Mostly Cloudy 83 28.3 73 22.8 72 72 ENE 5 7 30.01 1016 9 14 0.00 0.00
7:59 pm 19:59 Mostly Cloudy 81 27.2 74 23.3 79 79 SSE 3 6 30.03 1017 10 16 0.00 0.00
8:07 pm 20:07 Mostly Cloudy 81 27.2 73 22.8 77 77 SSE 5 7 30.03 1017 10 16 0.00 0.00
8:25 pm 20:25 Cloudy 80 26.7 73 22.8 79 79 SSE 5 7 30.03 1017 9 14 0.00 0.00
8:59 pm 20:59 Partly Cloudy 79 26.1 73 22.8 82 82 SSE 5 7 30.03 1017 10 16 0.00 0.00
9:59 pm 21:59 Mostly Cloudy 78 25.6 73 22.8 85 85 Calm 30.06 1018 10 16 0.00 0.00
10:59 pm 22:59 Mostly Cloudy 77 25 73 22.8 88 88 SSE 5 7 30.06 1018 10 16 0.00 0.00
11:59 pm 23:59 Cloudy 78 25.6 73 22.8 85 85 Calm 30.06 1018 10 16 0.00 0.00

Powered by AerisWeather